EW4883 Weather Reports


Display with metric or nautical units.
time (UTC)temp
F
wind
direction
speed
MPH
gust
MPH
rain 1hr
in
rain 24hr
in
rain mn
in
humidity
%
barometer
mb
20260905172553 90 274 0.0 6.0 0.00 0.00 0.00 39 1017.0
20260905172053 89 0 1.0 8.0 0.00 0.00 0.00 39 1017.0
20260905171607 89 286 3.0 8.0 0.00 0.00 0.00 39 1017.2
20260905171053 89 352 2.0 6.0 0.00 0.00 0.00 38 1017.1
20260905170553 89 278 1.0 6.0 0.00 0.00 0.00 38 1017.2
20260905170100 89 336 2.0 6.0 0.00 0.00 0.00 39 1017.2
20260905165552 88 342 0.0 5.0 0.00 0.00 0.00 40 1017.3
20260905165054 88 0 2.0 6.0 0.00 0.00 0.00 41 1017.3
20260905164555 88 40 0.0 6.0 0.00 0.00 0.00 43 1017.2
20260905164053 87 0 3.0 6.0 0.00 0.00 0.00 44 1017.2
20260905163553 87 322 2.0 4.0 0.00 0.00 0.00 44 1017.2
20260905163102 87 325 2.0 6.0 0.00 0.00 0.00 43 1017.1
20260905162553 87 86 1.0 6.0 0.00 0.00 0.00 45 1017.1
20260905162053 87 23 1.0 4.0 0.00 0.00 0.00 45 1017.2
20260905161606 86 21 1.0 4.0 0.00 0.00 0.00 47 1017.1
20260905161052 86 0 1.0 4.0 0.00 0.00 0.00 47 1017.1
20260905160554 86 0 0.0 3.0 0.00 0.00 0.00 49 1017.1
20260905160056 85 0 1.0 3.0 0.00 0.00 0.00 49 1017.1
20260905155552 85 81 0.0 3.0 0.00 0.00 0.00 49 1017.1
20260905155054 85 82 0.0 3.0 0.00 0.00 0.00 51 1017.1
20260905154602 84 82 0.0 3.0 0.00 0.00 0.00 53 1017.0
20260905154054 84 0 1.0 4.0 0.00 0.00 0.00 53 1017.1
20260905153552 84 0 0.0 4.0 0.00 0.00 0.00 55 1017.1
20260905153100 83 82 2.0 4.0 0.00 0.00 0.00 55 1017.1
20260905152552 83 81 0.0 0.0 0.00 0.00 0.00 56 1017.1
20260905152052 82 0 0.0 4.0 0.00 0.00 0.00 57 1017.1
20260905151558 82 0 0.0 4.0 0.00 0.00 0.00 59 1017.1
20260905151053 82 81 1.0 4.0 0.00 0.00 0.00 59 1017.1
20260905150553 82 81 2.0 4.0 0.00 0.00 0.00 59 1017.1
20260905150106 82 81 0.0 3.0 0.00 0.00 0.00 59 1017.0
20260905145553 81 82 1.0 3.0 0.00 0.00 0.00 59 1017.0
20260905145053 80 0 0.0 3.0 0.00 0.00 0.00 62 1017.0
20260905144602 80 0 1.0 4.0 0.00 0.00 0.00 63 1017.1
20260905144052 79 82 1.0 4.0 0.00 0.00 0.00 64 1017.1
20260905143549 79 82 1.0 4.0 0.00 0.00 0.00 65 1017.0
20260905143102 79 82 2.0 5.0 0.00 0.00 0.00 66 1017.0
20260905142551 78 82 2.0 5.0 0.00 0.00 0.00 65 1016.9
20260905142049 78 82 2.0 4.0 0.00 0.00 0.00 66 1016.8
20260905141559 78 86 1.0 6.0 0.00 0.00 0.00 67 1016.8
20260905141052 78 86 1.0 6.0 0.00 0.00 0.00 66 1016.8
20260905140554 78 88 2.0 5.0 0.00 0.00 0.00 66 1016.7
20260905140106 77 46 0.0 2.0 0.00 0.00 0.00 67 1016.6
20260905135553 77 0 0.0 0.0 0.00 0.00 0.00 68 1016.6
20260905135052 76 0 0.0 0.0 0.00 0.00 0.00 70 1016.6
20260905134606 75 0 0.0 0.0 0.00 0.00 0.00 72 1016.5
20260905134053 74 0 0.0 0.0 0.00 0.00 0.00 74 1016.3
20260905133554 73 0 0.0 0.0 0.00 0.00 0.00 76 1016.3
20260905133059 73 0 0.0 0.0 0.00 0.00 0.00 75 1016.2
20260905132552 72 0 0.0 0.0 0.00 0.00 0.00 76 1016.1
20260905132052 72 0 0.0 0.0 0.00 0.00 0.00 76 1016.0
20260905131556 72 0 0.0 0.0 0.00 0.00 0.00 77 1015.9
20260905131053 72 0 0.0 0.0 0.00 0.00 0.00 77 1015.8
20260905130556 72 0 0.0 0.0 0.00 0.00 0.00 76 1015.8
20260905130110 72 0 0.0 0.0 0.00 0.00 0.00 76 1015.7
20260905125556 72 0 0.0 0.0 0.00 0.00 0.00 76 1015.8
20260905125053 72 0 0.0 0.0 0.00 0.00 0.00 76 1015.8
20260905124601 73 0 0.0 0.0 0.00 0.00 0.00 75 1015.7
20260905124049 73 0 0.0 0.0 0.00 0.00 0.00 75 1015.8
20260905123552 73 0 0.0 0.0 0.00 0.00 0.00 74 1015.7
20260905123106 73 0 0.0 0.0 0.00 0.00 0.00 73 1015.7
20260905122549 73 0 0.0 0.0 0.00 0.00 0.00 73 1015.7
20260905122052 73 0 0.0 0.0 0.00 0.00 0.00 73 1015.6
20260905121603 73 0 0.0 0.0 0.00 0.00 0.00 73 1015.5
20260905121053 73 0 0.0 0.0 0.00 0.00 0.00 73 1015.4
20260905120555 73 0 0.0 0.0 0.00 0.00 0.00 73 1015.5
20260905115549 74 0 0.0 0.0 0.00 0.00 0.00 73 1015.4
20260905115052 74 0 0.0 0.0 0.00 0.00 0.00 72 1015.4
20260905114608 74 0 0.0 0.0 0.00 0.00 0.00 72 1015.4
20260905114053 74 0 0.0 0.0 0.00 0.00 0.00 72 1015.6
20260905113553 74 0 0.0 0.0 0.00 0.00 0.00 71 1015.5
20260905113100 74 0 0.0 0.0 0.00 0.00 0.00 71 1015.5
20260905112553 74 0 0.0 0.0 0.00 0.00 0.00 70 1015.5
20260905112056 74 0 0.0 0.0 0.00 0.00 0.00 70 1015.5
20260905111614 75 0 0.0 0.0 0.00 0.00 0.00 70 1015.5
20260905111052 75 0 0.0 0.0 0.00 0.00 0.00 69 1015.5
20260905110556 75 0 0.0 0.0 0.00 0.00 0.00 69 1015.4
20260905105553 74 0 0.0 0.0 0.00 0.00 0.00 69 1015.5
20260905105052 75 0 0.0 0.0 0.00 0.00 0.00 68 1015.5
20260905104607 75 0 0.0 0.0 0.00 0.00 0.00 69 1015.4
20260905104056 75 0 0.0 0.0 0.00 0.00 0.00 69 1015.4
20260905103551 75 0 0.0 0.0 0.00 0.00 0.00 69 1015.4
20260905103101 75 0 0.0 0.0 0.00 0.00 0.00 69 1015.5
20260905102553 75 0 0.0 0.0 0.00 0.00 0.00 68 1015.5
20260905102053 75 0 0.0 0.0 0.00 0.00 0.00 67 1015.5
20260905101608 75 0 0.0 0.0 0.00 0.00 0.00 67 1015.5
20260905101052 75 0 0.0 0.0 0.00 0.00 0.00 67 1015.4
20260905100557 75 0 0.0 0.0 0.00 0.00 0.00 66 1015.4
20260905100124 75 0 0.0 0.0 0.00 0.00 0.00 67 1015.3
20260905095552 75 0 0.0 0.0 0.00 0.00 0.00 67 1015.4
20260905095049 75 0 0.0 0.0 0.00 0.00 0.00 67 1015.4
20260905094611 75 0 0.0 0.0 0.00 0.00 0.00 66 1015.5
20260905094056 76 0 0.0 0.0 0.00 0.00 0.00 67 1015.5
20260905093552 76 0 0.0 0.0 0.00 0.00 0.00 66 1015.5
20260905093102 76 0 0.0 0.0 0.00 0.00 0.00 66 1015.4
20260905092553 76 0 0.0 0.0 0.00 0.00 0.00 65 1015.5
20260905092052 76 0 0.0 0.0 0.00 0.00 0.00 65 1015.5
20260905091608 76 0 0.0 0.0 0.00 0.00 0.00 65 1015.5
20260905091050 77 0 0.0 0.0 0.00 0.00 0.00 64 1015.5
20260905090553 77 0 0.0 0.0 0.00 0.00 0.00 63 1015.5
20260905090108 77 0 0.0 2.0 0.00 0.00 0.00 62 1015.5
20260905085553 77 0 0.0 2.0 0.00 0.00 0.00 63 1015.5
20260905085054 77 0 1.0 2.0 0.00 0.00 0.00 62 1015.4
20260905084609 77 0 0.0 1.0 0.00 0.00 0.00 63 1015.6
20260905084053 77 0 0.0 2.0 0.00 0.00 0.00 63 1015.5
20260905083553 77 0 0.0 2.0 0.00 0.00 0.00 62 1015.6
20260905083101 78 0 0.0 0.0 0.00 0.00 0.00 62 1015.5
20260905082552 78 0 0.0 0.0 0.00 0.00 0.00 62 1015.6
20260905082051 78 0 0.0 0.0 0.00 0.00 0.00 61 1015.6
20260905081611 78 0 0.0 0.0 0.00 0.00 0.00 62 1015.7
20260905081050 79 0 0.0 0.0 0.00 0.00 0.00 60 1015.8
20260905080553 79 0 0.0 0.0 0.00 0.00 0.00 60 1015.8
20260905075555 79 0 0.0 0.0 0.00 0.00 0.00 59 1015.9
20260905075053 79 0 0.0 0.0 0.00 0.00 0.00 59 1015.9
20260905074603 80 0 0.0 0.0 0.00 0.00 0.00 59 1015.9
20260905074053 80 0 0.0 0.0 0.00 0.00 0.00 58 1015.9
20260905073554 80 0 0.0 0.0 0.00 0.00 0.00 58 1015.8
20260905073103 80 0 0.0 0.0 0.00 0.00 0.00 57 1015.8
20260905072552 80 0 0.0 0.0 0.00 0.00 0.00 57 1015.7
20260905072051 81 0 0.0 0.0 0.00 0.00 0.00 57 1015.7
20260905071606 81 0 0.0 0.0 0.00 0.00 0.00 56 1015.7
20260905071055 81 0 0.0 0.0 0.00 0.00 0.00 56 1015.7
20260905070551 81 0 0.0 0.0 0.00 0.00 0.00 56 1015.6
20260905065555 82 0 0.0 5.0 0.00 0.00 0.00 55 1015.6
20260905065052 82 0 1.0 5.0 0.00 0.00 0.00 54 1015.7
20260905064603 82 0 1.0 5.0 0.00 0.00 0.00 53 1015.6
20260905064051 83 9 2.0 4.0 0.00 0.00 0.00 53 1015.6
20260905063552 83 290 2.0 4.0 0.00 0.00 0.00 52 1015.5
20260905063118 83 221 0.0 6.0 0.00 0.00 0.00 46 1015.5
20260905062554 83 0 1.0 6.0 0.00 0.00 0.00 47 1015.4
20260905062052 83 44 0.0 2.0 0.00 0.00 0.00 51 1015.5
20260905061621 83 0 0.0 1.0 0.00 0.00 0.00 50 1015.4
20260905061051 84 0 0.0 2.0 0.00 0.00 0.00 49 1015.4
20260905060551 84 0 0.0 5.0 0.00 0.00 0.00 48 1015.4
20260905060125 84 44 1.0 6.0 0.00 0.00 0.00 47 1015.4
20260905055551 85 44 2.0 9.0 0.00 0.00 0.00 45 1015.4
20260905055051 85 47 4.0 9.0 0.00 0.00 0.00 44 1015.2
20260905054606 86 75 3.0 9.0 0.00 0.00 0.00 43 1015.2
20260905054049 86 29 3.0 9.0 0.00 0.00 0.00 41 1015.2
20260905053553 87 0 2.0 9.0 0.00 0.00 0.00 39 1015.1
20260905053102 87 247 3.0 9.0 0.00 0.00 0.00 40 1015.0
20260905052551 87 196 2.0 10.0 0.00 0.00 0.00 41 1014.8
20260905052052 87 248 5.0 11.0 0.00 0.00 0.00 41 1014.8
20260905051604 87 211 5.0 11.0 0.00 0.00 0.00 41 1014.8
20260905051053 87 206 3.0 9.0 0.00 0.00 0.00 41 1014.8
20260905050552 87 207 3.0 7.0 0.00 0.00 0.00 41 1014.8
20260905050101 87 224 2.0 12.0 0.00 0.00 0.00 41 1014.8
20260905045555 87 207 5.0 12.0 0.00 0.00 0.00 41 1014.8
20260905045052 87 229 3.0 10.0 0.00 0.00 0.00 41 1014.7
20260905044600 87 223 3.0 7.0 0.00 0.00 0.00 41 1014.8
20260905044055 87 217 2.0 7.0 0.00 0.00 0.00 40 1014.7
20260905043555 87 218 3.0 7.0 0.00 0.00 0.00 40 1014.8
20260905043130 87 222 2.0 5.0 0.00 0.00 0.00 40 1014.8
20260905042551 87 211 2.0 7.0 0.00 0.00 0.00 40 1014.8
20260905042052 87 237 2.0 7.0 0.00 0.00 0.00 40 1014.9
20260905041604 87 236 1.0 5.0 0.00 0.00 0.00 40 1014.9
20260905041051 87 225 1.0 5.0 0.00 0.00 0.00 40 1014.9
20260905040556 88 225 2.0 8.0 0.00 0.00 0.00 39 1014.8
20260905040119 88 214 1.0 9.0 0.00 0.00 0.00 39 1014.9
20260905035553 88 196 2.0 9.0 0.00 0.00 0.00 39 1014.8
20260905035049 88 238 4.0 8.0 0.00 0.00 0.00 39 1014.8
20260905034558 88 229 4.0 8.0 0.00 0.00 0.00 39 1014.8
20260905034055 88 210 2.0 6.0 0.00 0.00 0.00 39 1014.7
20260905033551 88 211 2.0 8.0 0.00 0.00 0.00 39 1014.7
20260905033110 88 202 3.0 8.0 0.00 0.00 0.00 38 1014.6
20260905032553 88 228 2.0 6.0 0.00 0.00 0.00 38 1014.6
20260905032051 88 198 2.0 5.0 0.00 0.00 0.00 38 1014.6
20260905031613 88 228 1.0 5.0 0.00 0.00 0.00 38 1014.5
20260905031053 89 230 2.0 6.0 0.00 0.00 0.00 37 1014.5
20260905030552 89 224 2.0 7.0 0.00 0.00 0.00 37 1014.4
20260905030105 89 224 3.0 7.0 0.00 0.00 0.00 37 1014.2
20260905025552 89 219 2.0 6.0 0.00 0.00 0.00 37 1014.2
20260905025053 89 220 1.0 4.0 0.00 0.00 0.00 37 1014.1
20260905024602 89 0 0.0 6.0 0.00 0.00 0.00 37 1013.9
20260905024052 89 0 2.0 6.0 0.00 0.00 0.00 37 1014.0
20260905023558 89 225 0.0 2.0 0.00 0.00 0.00 37 1013.9
20260905023105 89 0 0.0 4.0 0.00 0.00 0.00 36 1013.7
20260905022552 89 0 1.0 5.0 0.00 0.00 0.00 36 1013.7
20260905022052 89 225 2.0 6.0 0.00 0.00 0.00 35 1013.8
20260905021601 89 225 3.0 6.0 0.00 0.00 0.00 35 1013.9
20260905021051 89 231 3.0 5.0 0.00 0.00 0.00 35 1013.8
20260905020551 89 238 2.0 10.0 0.00 0.00 0.00 36 1013.8
20260905020110 90 238 3.0 10.0 0.00 0.00 0.00 36 1013.7
20260905015552 90 238 4.0 10.0 0.00 0.00 0.00 35 1013.7
20260905015056 90 271 1.0 6.0 0.00 0.00 0.00 34 1013.7
20260905014604 90 270 1.0 6.0 0.00 0.00 0.00 33 1013.6
20260905014052 90 270 1.0 6.0 0.00 0.00 0.00 33 1013.6
20260905013552 90 273 1.0 6.0 0.00 0.00 0.00 33 1013.6
20260905013101 91 273 2.0 6.0 0.00 0.00 0.00 33 1013.6
20260905012555 91 283 1.0 10.0 0.00 0.00 0.00 33 1013.6
20260905012052 91 232 3.0 10.0 0.00 0.00 0.00 33 1013.6
20260905011605 91 254 4.0 9.0 0.00 0.00 0.00 33 1013.5
20260905011052 91 246 5.0 9.0 0.00 0.00 0.00 32 1013.5
20260905010552 92 249 3.0 9.0 0.00 0.00 0.00 31 1013.5
20260905010108 92 254 3.0 9.0 0.00 0.00 0.00 29 1013.5
20260905005551 92 250 2.0 12.0 0.00 0.00 0.00 29 1013.4
20260905005052 92 234 5.0 12.0 0.00 0.00 0.00 28 1013.4
20260905004613 93 249 4.0 9.0 0.00 0.00 0.00 28 1013.3
20260905004051 94 258 4.0 12.0 0.00 0.00 0.00 27 1013.5
20260905003554 94 313 3.0 12.0 0.00 0.00 0.00 27 1013.4
20260905003056 94 257 6.0 12.0 0.00 0.00 0.00 27 1013.4
20260905002550 95 287 2.0 7.0 0.00 0.00 0.00 27 1013.3
20260905002055 95 243 2.0 7.0 0.00 0.00 0.00 28 1013.1
20260905001554 94 0 1.0 13.0 0.00 0.00 0.00 30 1013.2
20260905001050 94 244 3.0 13.0 0.00 0.00 0.00 29 1013.2
20260905000552 95 283 4.0 10.0 0.00 0.00 0.00 29 1013.2
20260904235552 95 257 4.0 9.0 0.00 0.00 0.00 29 1013.1
20260904235055 95 260 3.0 11.0 0.00 0.00 0.00 29 1013.2
20260904234601 94 242 3.0 13.0 0.00 0.00 0.00 30 1013.2
20260904234054 94 235 6.0 14.0 0.00 0.00 0.00 30 1013.3
20260904233551 94 244 7.0 14.0 0.00 0.00 0.00 30 1013.4
20260904233106 95 263 6.0 13.0 0.00 0.00 0.00 30 1013.4
20260904232551 95 257 4.0 12.0 0.00 0.00 0.00 30 1013.3
20260904232053 94 304 6.0 12.0 0.00 0.00 0.00 31 1013.4
20260904231559 94 257 5.0 12.0 0.00 0.00 0.00 30 1013.5
20260904231052 94 250 4.0 11.0 0.00 0.00 0.00 32 1013.5
20260904230551 94 252 3.0 11.0 0.00 0.00 0.00 31 1013.4
20260904230109 95 352 6.0 11.0 0.00 0.00 0.00 32 1013.5
20260904225553 95 5 3.0 12.0 0.00 0.00 0.00 31 1013.5
20260904225052 94 311 3.0 12.0 0.00 0.00 0.00 31 1013.6
20260904224601 95 313 5.0 12.0 0.00 0.00 0.00 30 1013.6
20260904224053 95 227 4.0 9.0 0.00 0.00 0.00 31 1013.7
20260904223551 96 288 3.0 17.0 0.00 0.00 0.00 30 1013.7
20260904223059 96 302 4.0 17.0 0.00 0.00 0.00 30 1013.7
20260904222550 96 281 3.0 12.0 0.00 0.00 0.00 29 1013.7
20260904222058 96 329 2.0 13.0 0.00 0.00 0.00 29 1013.7
20260904221605 96 229 4.0 13.0 0.00 0.00 0.00 28 1013.7
20260904221055 96 225 4.0 11.0 0.00 0.00 0.00 28 1013.8
20260904220552 96 238 4.0 10.0 0.00 0.00 0.00 28 1013.8
20260904220115 96 217 3.0 9.0 0.00 0.00 0.00 28 1013.9
20260904215552 96 124 0.0 7.0 0.00 0.00 0.00 28 1013.9
20260904215051 95 198 2.0 9.0 0.00 0.00 0.00 28 1014.0
20260904214600 95 155 3.0 9.0 0.00 0.00 0.00 27 1014.1
20260904214054 94 169 2.0 11.0 0.00 0.00 0.00 29 1014.1
20260904213549 94 0 3.0 11.0 0.00 0.00 0.00 29 1014.1
20260904213106 93 246 4.0 11.0 0.00 0.00 0.00 29 1014.2
20260904212554 93 222 2.0 9.0 0.00 0.00 0.00 31 1014.2
20260904212051 94 263 1.0 10.0 0.00 0.00 0.00 31 1014.3
20260904211613 95 258 4.0 10.0 0.00 0.00 0.00 31 1014.4
20260904211055 94 246 3.0 9.0 0.00 0.00 0.00 32 1014.3
20260904210551 94 267 4.0 9.0 0.00 0.00 0.00 32 1014.4
20260904210100 94 236 1.0 9.0 0.00 0.00 0.00 33 1014.4
20260904205551 94 259 4.0 9.0 0.00 0.00 0.00 34 1014.4
20260904205050 94 244 2.0 9.0 0.00 0.00 0.00 36 1014.4
20260904204605 94 226 3.0 12.0 0.00 0.00 0.00 36 1014.6
20260904204053 93 241 3.0 12.0 0.00 0.00 0.00 36 1014.6
20260904203553 94 246 4.0 12.0 0.00 0.00 0.00 36 1014.8
20260904203104 94 0 3.0 9.0 0.00 0.00 0.00 35 1014.9
20260904202552 94 0 0.0 5.0 0.00 0.00 0.00 35 1014.9
20260904202052 94 178 1.0 11.0 0.00 0.00 0.00 34 1015.0
20260904201559 94 147 1.0 13.0 0.00 0.00 0.00 36 1015.1
20260904201051 94 190 4.0 13.0 0.00 0.00 0.00 36 1015.2
20260904200551 94 308 4.0 13.0 0.00 0.00 0.00 36 1015.2
20260904200100 93 238 3.0 9.0 0.00 0.00 0.00 36 1015.3
20260904195551 93 236 3.0 9.0 0.00 0.00 0.00 37 1015.4
20260904195050 93 246 2.0 10.0 0.00 0.00 0.00 38 1015.4
20260904194620 92 218 1.0 10.0 0.00 0.00 0.00 39 1015.4
20260904194052 91 227 4.0 10.0 0.00 0.00 0.00 39 1015.4
20260904193552 91 0 2.0 10.0 0.00 0.00 0.00 38 1015.5
20260904193110 92 351 3.0 8.0 0.00 0.00 0.00 38 1015.6
20260904192552 91 304 2.0 8.0 0.00 0.00 0.00 39 1015.5
20260904192051 91 0 0.0 7.0 0.00 0.00 0.00 39 1015.6
20260904191602 92 165 1.0 7.0 0.00 0.00 0.00 39 1015.7
20260904191051 91 140 2.0 7.0 0.00 0.00 0.00 39 1015.8
20260904190552 92 102 4.0 8.0 0.00 0.00 0.00 38 1015.8
20260904190059 92 141 3.0 8.0 0.00 0.00 0.00 39 1015.8
20260904185552 92 146 2.0 9.0 0.00 0.00 0.00 38 1015.8
20260904185051 91 200 2.0 9.0 0.00 0.00 0.00 40 1015.9
20260904184604 90 127 3.0 9.0 0.00 0.00 0.00 40 1016.0
20260904184053 90 61 4.0 8.0 0.00 0.00 0.00 42 1016.0
20260904183554 90 96 3.0 9.0 0.00 0.00 0.00 42 1016.2
20260904183118 90 80 3.0 9.0 0.00 0.00 0.00 41 1016.3
20260904182551 90 108 3.0 8.0 0.00 0.00 0.00 42 1016.3
20260904182051 89 26 4.0 8.0 0.00 0.00 0.00 44 1016.4
20260904181602 89 94 1.0 8.0 0.00 0.00 0.00 45 1016.5
20260904181053 89 121 1.0 8.0 0.00 0.00 0.00 45 1016.5
20260904180553 89 106 2.0 8.0 0.00 0.00 0.00 45 1016.6
20260904180123 89 123 2.0 6.0 0.00 0.00 0.00 44 1016.6
20260904175556 89 234 1.0 6.0 0.00 0.00 0.00 46 1016.6
20260904175050 89 142 2.0 9.0 0.00 0.00 0.00 48 1016.7
20260904174609 88 117 3.0 9.0 0.00 0.00 0.00 48 1016.8
20260904174051 88 127 3.0 7.0 0.00 0.00 0.00 47 1016.7
20260904173551 88 131 2.0 9.0 0.00 0.00 0.00 48 1016.8
20260904173056 88 209 1.0 10.0 0.00 0.00 0.00 50 1016.9